�������l�o���
Date,Time,MP-1(��Sv/h),MP-2(��Sv/h),MP-3(��Sv/h),MP-4(��Sv/h),MP-5(��Sv/h),MP-6(��Sv/h),MP-7(��Sv/h),MP-8(��Sv/h),����,����(m/s),���J
2020/05/24,00:00,0.666,0.942,0.627,1.145,0.804,0.390,0.670,0.633,��,6.0,�L
2020/05/24,00:10,0.664,0.942,0.626,1.146,0.801,0.389,0.667,0.635,��,6.3,�L
2020/05/24,00:20,0.666,0.941,0.627,1.149,0.804,0.390,0.668,0.635,��,6.7,��
2020/05/24,00:30,0.666,0.943,0.627,1.146,0.808,0.391,0.670,0.634,��,6.7,��
2020/05/24,00:40,0.664,0.943,0.626,1.145,0.804,0.390,0.668,0.633,��,6.5,��
2020/05/24,00:50,0.666,0.944,0.627,1.145,0.806,0.390,0.669,0.635,��,5.8,��
2020/05/24,01:00,0.665,0.944,0.626,1.147,0.805,0.390,0.670,0.634,��,5.2,��
2020/05/24,01:10,0.666,0.943,0.625,1.147,0.806,0.390,0.670,0.634,��,5.0,��
2020/05/24,01:20,0.666,0.943,0.626,1.146,0.805,0.390,0.670,0.635,��,5.0,��
2020/05/24,01:30,0.666,0.943,0.627,1.147,0.805,0.391,0.670,0.633,��,5.6,��
2020/05/24,01:40,0.666,0.942,0.627,1.148,0.806,0.390,0.668,0.636,��,5.9,��
2020/05/24,01:50,0.665,0.944,0.629,1.148,0.807,0.389,0.669,0.634,��,6.8,��
2020/05/24,02:00,0.666,0.944,0.628,1.148,0.804,0.390,0.670,0.635,��쐼,6.5,��
2020/05/24,02:10,0.667,0.943,0.628,1.148,0.808,0.389,0.669,0.636,��,6.2,��
2020/05/24,02:20,0.667,0.945,0.626,1.146,0.806,0.390,0.669,0.636,��,6.4,��
2020/05/24,02:30,0.667,0.943,0.629,1.147,0.805,0.390,0.670,0.634,��,6.0,��
2020/05/24,02:40,0.664,0.942,0.627,1.148,0.806,0.390,0.669,0.635,��,6.0,��
2020/05/24,02:50,0.666,0.944,0.626,1.147,0.807,0.390,0.670,0.635,��,6.0,��
2020/05/24,03:00,0.666,0.945,0.627,1.149,0.807,0.390,0.671,0.636,��,5.6,��
2020/05/24,03:10,0.666,0.944,0.627,1.149,0.807,0.390,0.671,0.635,��,6.2,��
2020/05/24,03:20,0.665,0.944,0.626,1.149,0.809,0.391,0.670,0.635,��,6.3,��
2020/05/24,03:30,0.667,0.943,0.625,1.150,0.808,0.392,0.670,0.635,��,6.1,��
2020/05/24,03:40,0.667,0.945,0.628,1.145,0.807,0.391,0.671,0.635,��,7.1,��
2020/05/24,03:50,0.669,0.941,0.625,1.148,0.808,0.391,0.670,0.635,��,7.1,��
2020/05/24,04:00,0.667,0.946,0.628,1.148,0.808,0.391,0.671,0.635,��,7.0,��
2020/05/24,04:10,0.666,0.942,0.628,1.148,0.807,0.390,0.671,0.634,��,6.2,��
2020/05/24,04:20,0.667,0.944,0.626,1.148,0.807,0.391,0.672,0.634,��,6.8,��
2020/05/24,04:30,0.667,0.945,0.627,1.149,0.808,0.390,0.671,0.635,��,4.8,��
2020/05/24,04:40,0.667,0.944,0.628,1.151,0.807,0.390,0.672,0.634,��,6.0,�L
2020/05/24,04:50,0.667,0.944,0.626,1.149,0.809,0.391,0.671,0.636,��,6.3,��
2020/05/24,05:00,0.666,0.943,0.628,1.149,0.808,0.390,0.672,0.635,��,6.4,��
2020/05/24,05:10,0.666,0.944,0.627,1.151,0.808,0.390,0.672,0.634,��,7.0,��
2020/05/24,05:20,0.666,0.943,0.627,1.151,0.808,0.389,0.672,0.634,��,5.9,��
2020/05/24,05:30,0.667,0.945,0.627,1.149,0.807,0.390,0.670,0.636,��,5.4,��
2020/05/24,05:40,0.667,0.945,0.628,1.151,0.808,0.391,0.673,0.635,��,4.8,��
2020/05/24,05:50,0.669,0.947,0.628,1.151,0.809,0.391,0.671,0.636,��,5.7,��
2020/05/24,06:00,0.667,0.947,0.629,1.153,0.810,0.390,0.672,0.636,��,5.8,��
2020/05/24,06:10,0.668,0.946,0.627,1.150,0.809,0.390,0.672,0.636,��,6.6,��
2020/05/24,06:20,0.667,0.944,0.626,1.150,0.810,0.389,0.672,0.637,��,5.8,��
2020/05/24,06:30,0.667,0.945,0.627,1.151,0.810,0.390,0.672,0.637,��,6.4,��
2020/05/24,06:40,0.669,0.945,0.628,1.152,0.811,0.390,0.673,0.635,��,5.7,��
2020/05/24,06:50,0.670,0.943,0.629,1.152,0.809,0.390,0.674,0.635,��,5.7,��
2020/05/24,07:00,0.669,0.947,0.629,1.152,0.811,0.389,0.674,0.638,��,5.9,��
2020/05/24,07:10,0.668,0.947,0.628,1.154,0.810,0.389,0.672,0.638,��,5.9,��
2020/05/24,07:20,0.667,0.948,0.630,1.151,0.810,0.390,0.673,0.637,��,5.0,��
2020/05/24,07:30,0.666,0.947,0.630,1.153,0.811,0.389,0.671,0.636,��,4.7,��
2020/05/24,07:40,0.669,0.949,0.628,1.154,0.811,0.391,0.672,0.636,��,4.9,��
2020/05/24,07:50,0.667,0.950,0.629,1.156,0.812,0.390,0.673,0.636,��,4.7,��
2020/05/24,08:00,0.669,0.951,0.627,1.155,0.811,0.392,0.672,0.635,��,5.0,��
2020/05/24,08:10,0.668,0.952,0.629,1.155,0.813,0.391,0.674,0.633,��,5.0,��
2020/05/24,08:20,0.670,0.951,0.630,1.155,0.811,0.391,0.671,0.634,��,4.9,��
2020/05/24,08:30,0.672,0.953,0.630,1.155,0.814,0.392,0.673,0.635,��,5.3,��
2020/05/24,08:40,0.671,0.952,0.631,1.151,0.812,0.392,0.673,0.636,��,5.0,��
2020/05/24,08:50,0.669,0.955,0.631,1.154,0.814,0.393,0.674,0.635,��,5.3,��
2020/05/24,09:00,0.671,0.959,0.629,1.157,0.815,0.393,0.675,0.637,��쓌,7.2,��
2020/05/24,09:10,0.672,0.957,0.630,1.155,0.815,0.394,0.674,0.634,��쓌,7.7,��
2020/05/24,09:20,0.670,0.955,0.631,1.157,0.815,0.393,0.673,0.634,��쓌,8.3,��
2020/05/24,09:30,0.671,0.955,0.630,1.158,0.815,0.391,0.674,0.635,��쓌,11.1,��
2020/05/24,09:40,0.673,0.956,0.631,1.158,0.817,0.394,0.674,0.636,��쓌,11.9,��
2020/05/24,09:50,0.671,0.957,0.632,1.159,0.815,0.394,0.674,0.635,��쓌,10.2,��
2020/05/24,10:00,0.672,0.957,0.631,1.160,0.818,0.393,0.676,0.637,��쓌,9.5,��
2020/05/24,10:10,0.673,0.960,0.630,1.158,0.820,0.394,0.675,0.636,��,9.3,��
2020/05/24,10:20,0.672,0.956,0.633,1.161,0.819,0.394,0.675,0.635,��쓌,9.6,��
2020/05/24,10:30,0.673,0.960,0.633,1.159,0.819,0.395,0.675,0.637,��,9.4,��
2020/05/24,10:40,0.672,0.958,0.633,1.160,0.821,0.394,0.675,0.636,��쓌,8.8,��
2020/05/24,10:50,0.673,0.962,0.634,1.158,0.820,0.394,0.675,0.638,��쓌,10.7,��
2020/05/24,11:00,0.673,0.960,0.635,1.163,0.820,0.396,0.676,0.638,��,12.4,��
2020/05/24,11:10,0.673,0.962,0.633,1.160,0.823,0.395,0.676,0.638,��쓌,12.7,��
2020/05/24,11:20,0.673,0.962,0.634,1.158,0.823,0.395,0.678,0.637,��쓌,10.5,��
2020/05/24,11:30,0.673,0.962,0.634,1.160,0.822,0.394,0.676,0.639,��,8.3,��
2020/05/24,11:40,0.674,0.963,0.634,1.159,0.823,0.393,0.677,0.638,��쓌,10.0,��
2020/05/24,11:50,0.676,0.963,0.636,1.160,0.824,0.398,0.676,0.638,��쓌,7.9,��
2020/05/24,12:00,0.676,0.965,0.636,1.160,0.822,0.394,0.676,0.640,��쓌,9.1,��
2020/05/24,12:10,0.677,0.963,0.634,1.162,0.823,0.396,0.676,0.637,��,9.4,��
2020/05/24,12:20,0.675,0.963,0.634,1.162,0.823,0.396,0.676,0.640,��,10.9,��
2020/05/24,12:30,0.677,0.967,0.634,1.162,0.824,0.396,0.678,0.640,��,9.9,��
2020/05/24,12:40,0.676,0.966,0.636,1.162,0.826,0.397,0.676,0.640,��,12.4,��
2020/05/24,12:50,0.677,0.969,0.636,1.163,0.826,0.397,0.677,0.640,��,11.4,��
2020/05/24,13:00,0.677,0.969,0.637,1.162,0.827,0.396,0.677,0.639,��,14.1,��
2020/05/24,13:10,0.678,0.969,0.636,1.163,0.825,0.397,0.677,0.640,��쓌,15.3,��
2020/05/24,13:20,0.679,0.966,0.636,1.163,0.828,0.396,0.678,0.640,��쓌,14.1,��
2020/05/24,13:30,0.679,0.970,0.637,1.163,0.826,0.397,0.677,0.640,��쓌,16.9,��
2020/05/24,13:40,0.679,0.969,0.637,1.163,0.828,0.395,0.679,0.640,��쓌,15.8,��
2020/05/24,13:50,0.677,0.968,0.638,1.164,0.828,0.395,0.679,0.640,��쓌,15.3,��
2020/05/24,14:00,0.678,0.969,0.637,1.165,0.827,0.396,0.677,0.639,��쓌,12.4,��
2020/05/24,14:10,0.679,0.971,0.636,1.165,0.829,0.396,0.679,0.639,��,10.4,��
2020/05/24,14:20,0.680,0.967,0.639,1.164,0.829,0.398,0.679,0.639,��,9.8,��
2020/05/24,14:30,0.680,0.970,0.638,1.167,0.830,0.397,0.680,0.639,��,12.4,��
2020/05/24,14:40,0.680,0.974,0.638,1.166,0.829,0.398,0.679,0.642,��,12.4,��
2020/05/24,14:50,0.680,0.973,0.638,1.165,0.830,0.396,0.680,0.640,��,10.8,��
2020/05/24,15:00,0.680,0.969,0.638,1.165,0.829,0.397,0.677,0.639,��,9.8,��
2020/05/24,15:10,0.678,0.973,0.638,1.166,0.831,0.398,0.678,0.639,��,10.9,��
2020/05/24,15:20,0.678,0.972,0.639,1.169,0.831,0.397,0.680,0.640,��,13.4,��
2020/05/24,15:30,0.679,0.971,0.639,1.169,0.829,0.397,0.679,0.640,��,12.9,��
2020/05/24,15:40,0.680,0.974,0.639,1.168,0.830,0.398,0.679,0.641,��,12.8,��
2020/05/24,15:50,0.679,0.972,0.638,1.168,0.833,0.397,0.678,0.640,��,12.7,��
2020/05/24,16:00,0.679,0.972,0.637,1.165,0.829,0.397,0.680,0.640,��쓌,13.5,��
2020/05/24,16:10,0.678,0.973,0.639,1.170,0.830,0.397,0.678,0.641,��,12.5,��
2020/05/24,16:20,0.678,0.974,0.638,1.168,0.831,0.398,0.678,0.640,��,11.2,��
2020/05/24,16:30,0.678,0.974,0.639,1.169,0.831,0.398,0.679,0.640,��쓌,10.9,��
2020/05/24,16:40,0.680,0.970,0.640,1.169,0.830,0.397,0.676,0.640,��,9.0,��
2020/05/24,16:50,0.680,0.971,0.640,1.170,0.831,0.395,0.677,0.641,��,11.3,��
2020/05/24,17:00,0.678,0.973,0.640,1.170,0.833,0.395,0.679,0.640,��쓌,12.8,��
2020/05/24,17:10,0.677,0.974,0.639,1.169,0.831,0.396,0.677,0.641,��,9.9,��
2020/05/24,17:20,0.678,0.971,0.640,1.168,0.832,0.397,0.678,0.641,��쓌,11.4,��
2020/05/24,17:30,0.677,0.973,0.639,1.168,0.830,0.397,0.679,0.640,��,10.0,��
2020/05/24,17:40,0.678,0.973,0.639,1.169,0.832,0.399,0.679,0.641,��,9.3,��
2020/05/24,17:50,0.679,0.970,0.639,1.172,0.831,0.396,0.679,0.642,��,8.8,��
2020/05/24,18:00,0.677,0.972,0.640,1.172,0.832,0.396,0.679,0.641,��,11.2,��
2020/05/24,18:10,0.679,0.975,0.638,1.168,0.831,0.398,0.678,0.641,��,11.7,��
2020/05/24,18:20,0.678,0.976,0.640,1.171,0.830,0.396,0.679,0.640,��,9.4,��
2020/05/24,18:30,0.680,0.973,0.640,1.172,0.831,0.395,0.677,0.640,��,10.4,��
2020/05/24,18:40,0.678,0.974,0.637,1.172,0.829,0.394,0.679,0.642,��,11.7,��
2020/05/24,18:50,0.681,0.973,0.638,1.174,0.827,0.397,0.676,0.641,��,10.9,��
2020/05/24,19:00,0.681,0.974,0.639,1.174,0.831,0.395,0.678,0.642,��,11.3,��
2020/05/24,19:10,0.679,0.974,0.640,1.173,0.831,0.395,0.678,0.643,��,11.7,��
2020/05/24,19:20,0.678,0.974,0.639,1.174,0.831,0.396,0.680,0.641,��,10.3,��
2020/05/24,19:30,0.679,0.975,0.642,1.176,0.833,0.396,0.681,0.643,��,9.7,��
2020/05/24,19:40,0.681,0.973,0.641,1.174,0.831,0.398,0.680,0.644,��,10.3,��
2020/05/24,19:50,0.678,0.976,0.642,1.175,0.833,0.396,0.680,0.643,��,10.7,��
2020/05/24,20:00,0.679,0.974,0.641,1.174,0.831,0.397,0.679,0.644,��,10.2,��
2020/05/24,20:10,0.679,0.977,0.643,1.174,0.831,0.397,0.682,0.644,��,12.4,��
2020/05/24,20:20,0.679,0.976,0.642,1.174,0.832,0.397,0.681,0.643,��,10.6,��
2020/05/24,20:30,0.680,0.975,0.642,1.173,0.833,0.395,0.681,0.642,��,9.5,��
2020/05/24,20:40,0.679,0.977,0.642,1.172,0.834,0.396,0.681,0.643,��쐼,9.3,��
2020/05/24,20:50,0.679,0.975,0.641,1.176,0.831,0.395,0.682,0.643,��,9.1,��
2020/05/24,21:00,0.678,0.976,0.641,1.173,0.833,0.396,0.682,0.644,��,7.8,��
2020/05/24,21:10,0.679,0.975,0.643,1.172,0.832,0.397,0.679,0.643,��,8.4,��
2020/05/24,21:20,0.681,0.977,0.640,1.174,0.830,0.396,0.681,0.642,��,9.4,��
2020/05/24,21:30,0.680,0.976,0.642,1.175,0.833,0.395,0.680,0.642,��,9.6,��
2020/05/24,21:40,0.682,0.976,0.641,1.174,0.834,0.396,0.680,0.645,��,10.5,��
2020/05/24,21:50,0.679,0.974,0.643,1.177,0.833,0.398,0.681,0.643,��,10.7,��
2020/05/24,22:00,0.680,0.974,0.642,1.172,0.832,0.398,0.681,0.645,��,10.0,��
2020/05/24,22:10,0.680,0.975,0.642,1.174,0.832,0.397,0.681,0.642,��,9.7,��
2020/05/24,22:20,0.680,0.976,0.641,1.175,0.831,0.398,0.682,0.644,��,9.5,��
2020/05/24,22:30,0.678,0.976,0.644,1.174,0.833,0.395,0.679,0.642,��,9.4,��
2020/05/24,22:40,0.680,0.974,0.642,1.173,0.833,0.396,0.681,0.645,��,8.0,��
2020/05/24,22:50,0.683,0.974,0.643,1.174,0.833,0.395,0.682,0.645,��,10.7,��
2020/05/24,23:00,0.682,0.975,0.642,1.173,0.833,0.395,0.680,0.644,��,9.4,��
2020/05/24,23:10,0.681,0.976,0.641,1.173,0.833,0.397,0.679,0.643,��,7.9,��
2020/05/24,23:20,0.681,0.978,0.642,1.175,0.831,0.397,0.681,0.643,��,7.9,��
2020/05/24,23:30,0.681,0.976,0.643,1.175,0.833,0.397,0.683,0.643,��,9.8,��
2020/05/24,23:40,0.681,0.976,0.641,1.173,0.833,0.397,0.679,0.645,��,8.3,��
2020/05/24,23:50,0.680,0.976,0.641,1.175,0.834,0.395,0.681,0.644,��,9.3,��
